Tracking 17938 objects as of 21-February-2017
HD Live streaming from Space Station
objects crossing your sky now

GLOBALSTAR M044

Track GLOBALSTAR M044 now!
10-day predictions
GLOBALSTAR M044 is classified as:


NORAD ID: 25678
Int'l Code: 1999-019C
Perigee: 1,728.0 km
Apogee: 1,736.5 km
Inclination: 52.0 °
Period: 121.0 minutes
Semi major axis: 8103 km
RCS: 2.4818 m2 (large)
Launch date: April 15, 1999
Source: Globalstar (GLOB)
Launch site: TYURATAM MISSILE AND SPACE COMPLEX (TTMTR)
Your satellite tracking list
Your tracking list is empty





NASA's NSSDC Master Catalog

Two Line Element Set (TLE):
1 25678U 99019C   17052.15589104 -.00000087  00000-0 -52685-4 0  9991
2 25678  51.9960 171.4739 0005245 300.4365 126.7291 11.90179675809550
Source of the keplerian elements: AFSPC